Back to catalog

STARLINK-2364

AliveCommunicationsVLEO
NORAD 47904·PAYLOAD·🇺🇸 United States

Launched Mar 14, 2021 from Cape Canaveral Space Force Station

Loading…

Next Passes (next 24 hours)

TLE

FreshSource: CelesTrak SupGP

Epoch: Sep 14, 2026, 13:50 UTC

1 47904C 21021AW  26257.57687500  .00168320  00000+0  54208-2 0  2577
2 47904  53.1575  96.2210 0001291  97.0555 261.6766 15.31570447    18

Track STARLINK-2364 in real time with AllMySat

Download on the App Store